Location: Bednik
(45.3500°N, 16.3833°E)
Time: 08:32:51
(UTC+00:00)

Cosmos 407 Rocket - Pass Details

Date: 08 August 2020
Orbit: 744 x 786 km, 74.0° (Epoch: 20 September)

Event Time Altitude Azimuth Distance (km) Brightness Sun altitude
Rises 20:17:39 0° 216° (SW) 3,261 6.6 -18.6°
Reaches altitude 10° 20:20:07 10° 222° (SW) 2,334 5.9 -18.9°
Maximum altitude 20:25:15 49° 297° (WNW) 1,004 4.5 -19.5°
Drops below altitude 10° 20:30:22 10° 12° (NNE) 2,328 6.5 -20.1°
Sets 20:32:50 0° 18° (NNE) 3,252 7.2 -20.3°
